Hourly Data Report for February 18, 2021

KUGAARUK CLIMATE
NUNAVUT
Current Station Operator: ECCC - MSC

68°32'15.060" N
89°47'47.020" W
15.80 m
2303094
71407
NBB

Download Data

Hourly Data (February 2021)
Hourly Data Report for February 18, 2021
TIME
LST
Temp Definition
°C
Dew Point Definition
°C
Rel Hum Definition
%
Precip. Amount Definition
mm

Wind Dir Definition
10's deg

Wind Spd Definition
km/h
Visibility Definition
km
Stn Press Definition
kPa
Hmdx Definition


Wind Chill Definition


Weather Definition


00:00 -30.7 -33.9 73 0.0 24 26   100.13   -46 LegendNANA
01:00 -30.9 -34.2 73 0.0 23 26   100.10   -46 LegendNANA
02:00 -29.8 -33.0 74 0.0 24 22   100.06   -43 LegendNANA
03:00 -28.7 -31.8 74 0.0 23 28   100.08   -43 LegendNANA
04:00 -28.2 -31.3 75 0.2 24 29   100.04   -43 LegendNANA
05:00 -28.2 -31.2 75 0.0 23 31   99.99   -43 LegendNANA
06:00 -27.3 -30.3 76 0.0 23 25   99.95   -41 LegendNANA
07:00 -26.5 -29.5 76 0.0 25 30   99.89   -41 LegendNANA
08:00 -26.3 -29.3 76 0.0 24 34   99.86   -42 LegendNANA
09:00 -26.1 -29.2 76 0.0 24 34   99.84   -41 LegendNANA
10:00 -25.0 -28.0 76 0.0 24 37   99.85   -40 LegendNANA
11:00 -25.8 -28.8 76 0.0 25 40   99.85   -42 LegendNANA
12:00 -26.7 -29.8 75 0.0 26 39   99.93   -43 LegendNANA
13:00 -27.3 -30.5 74 0.0 26 32   99.97   -42 LegendNANA
14:00 -28.3 -31.3 75 0.0 26 31   100.01   -44 LegendNANA
15:00 -28.6 -31.7 75 0.0 25 27   100.09   -43 LegendNANA
16:00 -29.0 -32.1 75 0.0 26 27   100.08   -44 LegendNANA
17:00 -29.2 -32.3 75 0.0 26 28   100.08   -44 LegendNANA
18:00 -29.7 -32.9 74 0.0 24 21   100.13   -43 LegendNANA
19:00 -29.2 -32.4 74 0.0 25 28   100.10   -44 LegendNANA
20:00 -29.4 -32.6 74 0.0 24 26   100.08   -44 LegendNANA
21:00 -29.7 -33.0 73 0.0 24 30   100.07   -45 LegendNANA
22:00 -29.6 -32.8 73 0.0 25 34   100.03   -46 LegendNANA
23:00 -29.6 -32.8 74 0.0 24 33   100.02   -46 LegendNANA

Notes on Data Quality.

Legend

  • E = Estimated
  • M = Missing
  • NA = Not Available*
  • [empty] = Indicates an unobserved value
Date modified: